Regional Weather Roundup
Issued by NWS Midland/Odessa, TX

Skip options and go directly to product.
Home | Oldest Version | Previous Version | Current Version | All | Text Only | Save Text | Print | Product List | Glossary Off

Skip product version selection by date and time.   

089
ASUS44 KMAF 272201
RWRMAF
MIDLAND AREA WEATHER ROUNDUP
NATIONAL WEATHER SERVICE MIDLAND TX
500 PM CDT WED MAY 27 2015

...IN SOUTHWEST TEXAS AND SOUTHEAST NEW MEXICO...

CITY           SKY/WX    TMP DP  RH WIND       PRES   REMARKS
ALPINE         MOSUNNY   89  45  21 SE15G21   30.09F
ANDREWS        FAIR      87  58  37 S12G18    30.01F
ARTESIA        CLOUDY    91  39  16 S16       29.98F
BIG SPRING     PTSUNNY   88  59  37 SE13      30.02F
CARLSBAD       PTSUNNY   91  42  18 SE14      29.95F
DRYDEN           N/A     92  67  43 E17G28    29.93F
FORT STOCKTON  SUNNY     91  60  35 SE24      29.95F
GUAD PASS      CLOUDY    83  35  18 MISG      30.10F
HOBBS          MOSUNNY   86  50  28 SE12G18   30.02F
MARFA          SUNNY     88  37  16 SE14G20   30.07F
MIDLAND AIRPK  MOSUNNY   91  60  35 SE16G22   30.00F
MIDLAND INTL   MOSUNNY   89  62  40 S17       29.98F
ODESSA         PTSUNNY   89  60  37 SE15G24   29.99F
PECOS          MOSUNNY   95  54  25 E17G23    29.91F
PRESIDIO       FAIR     100  43  14 E15G22    29.87F
SEMINOLE       MOSUNNY   89  57  33 SE10G17   30.02F
SNYDER         MOSUNNY   87  65  48 SE13      30.02F
WINK           SUNNY     94  53  25 SE20      29.92F
$$
...OTHER STATIONS IN TEXAS...

CITY           SKY/WX    TMP DP  RH WIND       PRES   REMARKS
ABILENE        MOSUNNY   89  68  49 SE9       29.98F
AMARILLO       PTSUNNY   77  53  43 SE32G39   30.02F
AUSTIN         PTSUNNY   86  72  62 SE15      29.99F
BROWNSVILLE    CLOUDY    86  76  71 E14       29.97F
CORPUS CHRISTI MOSUNNY   87  73  62 E14       29.98F
DALLAS FTW     PTSUNNY   82  68  62 E6        30.01F
DEL RIO        PTSUNNY   86  71  60 SE17G25   29.93F
EL PASO        CLOUDY    90  20   7 W7        29.97F
HOUSTON INT    PTSUNNY   86  71  60 SE12G20   30.03F
LUBBOCK        CLOUDY    84  63  49 SE23      30.00F
SAN ANGELO     SUNNY     90  66  45 S9        29.96F
SAN ANTONIO    MOSUNNY   90  69  50 S18       29.99F
WACO           MOSUNNY   84  70  62 S14       30.00F
WICHITA FALLS  NOT AVBL
$$
...OTHER LOCATIONS IN NEW MEXICO...

CITY           SKY/WX    TMP DP  RH WIND       PRES   REMARKS
ALAMAGORDO     PTSUNNY   90  23   9 SW16      30.00F
ALBUQUERQUE    CLOUDY    78  27  15 S13       30.09F
CANNON AFB     PTSUNNY   83  47  29 S14G22    30.04F
CLOVIS         PTSUNNY   82  46  28 S18         N/A
HOLLOMAN AFB   PTSUNNY   89  19   7 NW12G20   29.98F
ROSWELL        CLOUDY    89  43  20 S5        29.98F
RUIDOSO        CLOUDY    73  21  14 SW17G25   30.21F
SANTA FE       PTSUNNY   75  26  16 W9G23     30.14F
TRUTH OR CONSE MOSUNNY   86  19   8 S16G29    30.02F
TUCUMCARI      PTSUNNY   86  38  18 S18G26    29.99F
$$

USA.gov is the U.S. government's official web portal to all federal, state and local government web resources and services.